{"data":{"norad_id":44779,"epoch":"2026-05-25T03:57:59.501664Z","epoch_age_seconds":71164,"freshness":"FRESH","line1":"1 44779U 19076A   26145.16527201 -.00000091  00000+0  25209-4 0  9998","line2":"2 44779  45.0062 282.7325 0010418  47.3082 312.8628 14.02036262334621","mean_motion":14.02036262,"eccentricity":0.0010418,"inclination_deg":45.0062,"raan_deg":282.7325,"arg_perigee_deg":47.3082,"mean_anomaly_deg":312.8628,"bstar":2.5209e-5,"rev_number":33462,"period_min":102.70775721206,"perigee_km":879.18389570722,"apogee_km":894.32101938096,"semimajor_km":7264.8894575441,"source":"CELESTRAK","updated_at":"2026-05-25T13:37:56.010575Z"}}